Regional Weather Roundup
Issued by NWS

Home | Current Version | Previous Version | Graphics & Text | Print | Product List | Glossary On
Versions: 1 2 3 4 5 6 7 8 9 10 11 12 13 14 15 16 17 18 19 20 21 22 23 24 25 26 27 28 29 30 31 32 33 34 35 36 37 38 39 40 41 42 43 44 45 46 47 48 49 50
000
ASUS45 KTFX 221704
RWRMT
MONTANA HOURLY WEATHER ROUNDUP
NATIONAL WEATHER SERVICE GREAT FALLS MT
1104 AM MDT TUE JUL 22 2014

NOTE: "FAIR" INDICATES FEW OR NO CLOUDS BELOW 12000 FEET WITH NO
SIGNIFICANT WEATHER AND/OR OBSTRUCTIONS TO VISIBILITY.

* THESE STATIONS ARE NOT UNDER NWS QUALITY CONTROL. THEY DO NOT
   REPORT WEATHER SUCH AS PRECIPITATION OR FOG.

MTZ001>007-043-221800-
WEST OF THE DIVIDE
CITY           SKY/WX    TMP DP  RH WIND       PRES   REMARKS
KALISPELL      CLOUDY    64  48  56 N5        30.16R
MISSOULA       CLOUDY    66  45  47 SW9       30.18F
BUTTE          SUNNY     70  52  53 CALM      30.28F
MULLAN PASS    CLOUDY    52  43  72 E6        30.26F
* ESSEX        N/A       59  45  60 SE8        N/A
* LINCOLN      N/A       59  54  84 N2         N/A
* LOOKOUT PASS N/A       52  51  96 S2         N/A
* POLSON       N/A       63  50  63 N2         N/A
* RONAN APT    CLOUDY    61  54  78 N/A        N/A
* SEELEY LAKE  N/A       60  45  58 NW2        N/A
* THOMP F APT  CLOUDY    70  48  46 SE3G9      N/A
* YAAK HILL    N/A       61  48  62 SW1        N/A
$$

MTZ008-052>055-221800-
SOUTHWEST MONTANA
CITY           SKY/WX    TMP DP  RH WIND       PRES   REMARKS
BOZEMAN        SUNNY     75  54  48 NE6       30.25S
DILLON         SUNNY     72  52  49 W3        30.26F
W YELLOWSTONE  SUNNY     66  46  49 S13       30.40S
* THREE FORKS  SUNNY     73  72  97 N5         N/A
* BOULDER HILL N/A       66  44  45 SW7        N/A
* MONIDA PASS  N/A       66  47  51 SE12G20    N/A
* RAYNOLDS PAS N/A       64  44  48 S17G24     N/A
* WHITEHALL    N/A       75  55  50 SW3        N/A
* WISE RIVER   N/A       69  49  49 S3         N/A
$$

MTZ009>010-012-014-046-048-049-054-221800-
EAST SLOPES AND CENTRAL MONTANA
CITY           SKY/WX    TMP DP  RH WIND       PRES   REMARKS
CUT BANK       PTSUNNY   66  54  65 SE8       30.19F
GREAT FALLS    CLOUDY    73  54  51 SW8       30.19R
HELENA         PTCLDY    70  54  57 N7        30.21F
MALMSTROM AFB  CLOUDY    72  50  46 VRB2      30.21R
* CONRAD       PTCLDY    64  61  90 N/A        N/A
* DEARBORN     N/A       69  51  53 SW1G7      N/A
* EAST GLACIER N/A       63  44  50 W4         N/A
* MONARCH      N/A       59  51  75 S10        N/A
* PENDROY      N/A       68  51  55 S8         N/A
* ROGERS PASS  N/A       62  45  54 SE2G9      N/A
* SAINT MARY   N/A       60  43  54 W3         N/A
* SWEET GRASS  N/A       69  54  59 SE11G17    N/A
$$

MTZ011-013-016-021-035-040-045-047-050-051-221800-
NORTH CENTRAL MONTANA
CITY           SKY/WX    TMP DP  RH WIND       PRES   REMARKS
HAVRE          PTCLDY    75  55  50 NE15      30.17S
LEWISTOWN      LGT RAIN  64  57  78 E9        30.26S
* CHESTER      N/A       69  53  57 SE7        N/A
* DENTON       N/A       63  61  93 SE7        N/A
* GEYSER       N/A       62  58  87 SE14       N/A
* JUDITH GAP   N/A       67  55  66 N5         N/A
* LOMA         N/A       74  54  50 SE4        N/A
$$

MTZ017>020-022>027-061-062-221800-
NORTHEAST MONTANA
CITY           SKY/WX    TMP DP  RH WIND       PRES   REMARKS
GLASGOW        PTCLDY    81  55  41 N5        30.18R HI  81
GLENDIVE       SUNNY     79  57  47 SE5       30.20R
JORDAN         PTSUNNY   82  55  40 E7        30.16F HI  81
SIDNEY         SUNNY     81  63  54 SE5       30.19S HI  82
WOLF POINT     PTCLDY    79  55  44 E7        30.17S
* BEAVER HILL  N/A       80  56  44 NE5        N/A   HI  80
* CIRCLE       N/A       80  63  56 NE5        N/A   HI  81
* LINDSAY DVD  N/A       78  56  47 E4         N/A
* NAVAJO       N/A       63  60  90 NE9        N/A
$$

MTZ028>042-056>058-221800-
SOUTHCENTRAL AND SOUTHEAST MONTANA
CITY           SKY/WX    TMP DP  RH WIND       PRES   REMARKS
BAKER          SUNNY     84  55  37 SE8       30.22R
BILLINGS       SUNNY     77  55  47 CALM      30.20R
LIVINGSTON     SUNNY     79  46  31 S8        30.23F
MILES CITY     SUNNY     82  63  53 E5        30.16S HI  83
* LAUREL APT   PTCLDY    75  54  48 N/A        N/A
* ROUNDUP APT  PTSUNNY   70  55  59 N/A        N/A
* ALZADA       N/A       78  61  56 E6         N/A
* HYSHAM       N/A       79  58  49 E8         N/A
* LAME DEER    N/A       74  55  52 E7G12      N/A
* REED POINT   N/A       79  51  38 NW3        N/A
* ROSCOE HILL  N/A       72  50  46 VRB3G8     N/A
$$

REGIONAL REPORTS...DAKOTAS
CITY           SKY/WX    TMP DP  RH WIND       PRES   REMARKS
WILLISTON      SUNNY     79  61  54 VRB7      30.18R
DICKINSON      SUNNY     72  64  76 E6        30.21R
CROSBY         SUNNY     73  68  84 CALM      30.20R
TIOGA          PTSUNNY   73  68  84 NE3       30.22S
WATFORD CITY   PTCLDY    73  64  74 CALM      30.17S
BISMARCK       SUNNY     72  63  73 VRB5      30.20S
GRAND FORKS    SUNNY     73  57  57 N12       30.13R
FARGO          PTCLDY    75  57  54 N17       30.12R
BUFFALO SD     SUNNY     81  57  44 S7        30.17R HI  81
RAPID CITY     PTCLDY    81  63  54 CALM      30.23R HI  82
$$

REGIONAL REPORTS...WYOMING/IDAHO/WASHINGTON
CITY           SKY/WX    TMP DP  RH WIND       PRES   REMARKS
GILLETTE       PTCLDY    84  54  36 S13G20    30.25F
SHERIDAN       PTCLDY    73  57  57 N7        30.21R
CODY           SUNNY    N/A N/A N/A SE8       30.24S
YELLOWSTONE LA SUNNY     66  43  43 VRB6      30.50R
SALMON         SUNNY     79  48  34 CALM      30.15F
MULLAN PASS    CLOUDY    52  43  72 E6        30.26S
SAND POINT     LGT RAIN  59  59 100 CALM      30.17R
SPOKANE        CLOUDY    63  50  63 E8        30.12R

$$



USA.gov is the U.S. government's official web portal to all federal, state and local government web resources and services.